[[{"header":{"parameterUnit":"m.s-1","parameterCategory":1,"la1":30.2991,"la2":30.254,"lo1":-89.0895,"lo2":-89.0444,"dy":0.0017,"dx":0.0017,"nx":28,"ny":28,"refTime":"2024-03-05T03:00:00:Z","depth":0,"parameterNumber":2,"parameterNumberName":"U-component_of_WINDS"},"data":[0,0,0,0,0,0,0,0,0,0,0,0,0,0,0,0,0,0,0,0,0,0,0,0,0,0,0,0,0,0,0,0,0,0,0,0,0,0,0,0,0,0,0,0,0,0,0,0,0,0,0,0,0,0,0,0,0,0,-5.2565,-5.2568,0,-5.2772,-5.2774,-5.2777,-5.2749,-5.2746,-5.2743,-5.2739,-5.2956,-5.2964,-5.2973,0,0,0,0,0,0,0,0,0,0,0,0,0,-5.2154,-5.2161,-5.2565,-5.2568,-5.257,-5.2772,-5.2774,-5.2777,-5.275,-5.2746,-5.2742,-5.2738,-5.2953,-5.2963,-5.2974,0,0,0,0,0,0,0,0,0,0,0,0,0,-5.2344,-5.2164,-5.2565,-5.2581,-5.2584,-5.2771,-5.2775,-5.2778,-5.2751,-5.2746,-5.2741,-5.2736,-5.2949,-5.2962,-5.2975,-5.316,0,0,-5.3016,-5.3022,0,0,0,0,0,0,0,0,-5.2333,-5.2359,-5.2576,-5.258,-5.2584,-5.273,-5.2709,-5.2906,-5.2752,-5.2688,-5.2739,-5.2733,-5.2885,-5.2903,-5.2953,-5.3171,-5.318,-5.3018,-5.3026,-5.3031,-5.3035,0,0,0,0,0,0,0,-5.232,-5.235,-5.2647,-5.2579,-5.2584,-5.258,-5.2601,-5.2746,-5.2813,-5.2693,-5.2692,-5.2716,-5.2886,-5.294,-5.2958,-5.3183,-5.3017,-5.3029,-5.3037,-5.3043,-5.3567,-5.3572,0,0,0,0,0,0,-5.2302,-5.2339,-5.2641,-5.2653,-5.2443,-5.2592,-5.2615,-5.2688,-5.2811,-5.2825,-5.272,-5.2714,-5.292,-5.2943,-5.2966,-5.3192,-5.3031,-5.3044,-5.3052,-5.3561,-5.3568,-5.3575,0,0,0,0,0,0,-5.2293,-5.2329,-5.2632,-5.2496,-5.2534,-5.2604,-5.2686,-5.2695,-5.2749,-5.2831,-5.2844,-5.2763,-5.2917,-5.2947,-5.3113,-5.3199,-5.305,-5.3062,-5.3554,-5.3563,-5.3571,-5.3646,0,0,0,0,0,0,-5.2281,-5.2326,-5.2395,-5.2498,-5.2542,-5.2774,-5.2691,-5.2703,-5.2772,-5.2766,-5.2875,-5.2888,-5.2915,-5.3093,-5.3126,-5.3215,-5.3073,-5.3547,-5.3558,-5.3569,-5.3636,-5.3656,-5.3673,0,0,0,0,0,-5.2267,-5.2408,-5.2398,-5.2435,-5.2629,-5.2779,-5.2804,-5.2831,-5.2779,-5.285,-5.2904,-5.2885,-5.3185,-5.311,-5.3147,-5.3242,-5.3541,-5.3555,-5.3568,-5.3627,-5.3652,-5.3673,0,0,0,0,0,0,-5.2313,-5.2421,-5.2412,-5.259,-5.2676,-5.2774,-5.2864,-5.2856,-5.2958,-5.2948,-5.2979,-5.3005,-5.3173,-5.3224,-5.3139,-5.3429,-5.3356,-5.3378,-5.3389,-5.3413,-5.3431,-5.3415,-5.3084,0,0,0,0,0,-5.2344,-5.2455,-5.2544,-5.2693,-5.2736,-5.2793,-5.2859,-5.2873,-5.2963,-5.2999,-5.3065,-5.3155,-5.327,-5.3344,-5.3454,-5.3644,-5.3669,-5.3728,-5.3746,-5.3761,-5.3779,-5.3887,-5.3914,-5.3618,-5.3618,-5.3618,0,0,-5.2409,-5.2482,-5.255,-5.2704,-5.2772,-5.2888,-5.2823,-5.2948,-5.3036,-5.3019,-5.3179,-5.3231,-5.3334,-5.3513,-5.3595,-5.3561,-5.3867,-5.3778,-5.379,-5.3799,-5.3903,-5.3931,-5.3956,-5.3627,-5.3625,-5.3624,0,0,-5.2587,-5.2653,-5.2785,-5.2855,-5.2958,-5.2996,-5.3028,-5.3129,-5.3162,-5.3324,-5.3315,-5.3421,-5.3617,-5.3691,-5.3755,-5.3966,-5.3954,-5.4002,-5.4099,-5.4203,-5.4227,-5.4247,-5.4324,-5.4352,-5.4019,-5.402,-5.402,0,-5.2655,-5.2828,-5.2854,-5.2981,-5.3051,-5.3041,-5.3177,-5.3244,-5.3379,-5.3428,-5.3388,-5.3636,-5.3705,-5.3903,-5.3955,-5.4006,-5.4046,-5.3988,-5.4221,-5.4242,-5.4262,-5.4336,-5.4365,-5.4025,-5.4024,-5.4024,-5.4023,0,-5.2907,-5.3028,-5.3123,-5.3253,-5.3333,-5.3464,-5.3513,-5.3592,-5.36,-5.3643,-5.381,-5.3893,-5.402,-5.4069,-5.4078,-5.427,-5.4246,-5.4213,-5.414,-5.4295,-5.4365,-5.4393,-5.4032,-5.403,-5.4029,-5.4028,0,0,-5.3116,-5.3262,-5.3296,-5.3357,-5.3473,-5.3567,-5.37,-5.3824,-5.3892,-5.3988,-5.4101,-5.427,-5.4241,-5.4314,-5.4332,-5.4424,-5.4589,-5.438,-5.4383,-5.4417,-5.4808,-5.4831,-5.4863,-5.4582,-5.4587,-5.4592,-5.48,0,-5.3306,-5.3537,-5.3567,-5.3774,-5.3888,-5.3883,-5.3999,-5.4084,-5.4129,-5.4234,-5.4285,-5.4404,-5.4357,-5.4401,-5.4492,-5.4549,-5.4668,-5.4535,-5.469,-5.4695,-5.4663,-5.49,-5.4924,-5.5116,-5.4827,-5.4832,-5.4835,0,-5.3556,-5.3658,-5.3876,-5.3979,-5.4028,-5.4131,-5.425,-5.435,-5.4448,-5.4475,-5.4558,-5.4566,-5.4707,-5.4629,-5.4825,-5.4734,-5.48,-5.4839,-5.4847,-5.4862,-5.4773,-5.4921,-5.5178,-5.5206,-5.4878,-5.4875,-5.4872,0,-5.3687,-5.388,-5.4035,-5.4087,-5.4212,-5.4285,-5.4341,-5.4434,-5.4508,-5.4613,-5.4662,-5.4783,-5.4849,-5.4943,-5.4985,-5.4925,-5.518,-5.5105,-5.5208,-5.5207,-5.526,-5.5256,-5.5531,-5.5304,-5.5303,-5.5302,-5.5302,0,-5.3895,-5.4029,-5.4096,-5.4192,-5.4344,-5.4379,-5.4528,-5.4582,-5.4666,-5.4774,-5.4779,-5.4881,-5.493,-5.5041,-5.5076,-5.5234,-5.5264,-5.5291,-5.5299,-5.5291,-5.5287,-5.5333,-5.5321,-5.531,-5.5309,-5.5307,-5.5306,0,-5.4066,-5.4116,-5.4286,-5.4391,-5.4421,-5.4528,-5.4619,-5.4714,-5.476,-5.4898,-5.4932,-5.5005,-5.5136,-5.5188,-5.5348,-5.5372,-5.5555,-5.5552,-5.5521,-5.5523,-5.5623,-5.5613,-5.5936,-5.5981,-5.5724,-5.5727,-5.5729,0,-5.4194,-5.4297,-5.4414,-5.4487,-5.4545,-5.4661,-5.4738,-5.4778,-5.4858,-5.4981,-5.5062,-5.5192,-5.5299,-5.551,-5.5578,-5.5703,-5.5703,-5.5808,-5.5721,-5.5711,-5.5705,-5.5698,-5.571,-5.5823,-5.5826,-5.5828,-5.583,0,-5.4417,-5.4438,-5.4547,-5.4666,-5.4757,-5.4853,-5.4947,-5.5007,-5.5063,-5.5153,-5.5287,-5.537,-5.5535,-5.5666,-5.5795,-5.5855,-5.5853,-5.5857,-5.5887,-5.5879,-5.5858,-5.5872,-5.5564,-5.5849,-5.5847,-5.5845,-5.5844,-5.5844,-5.4571,-5.4663,-5.4761,-5.4883,-5.4959,-5.5047,-5.5142,-5.5201,-5.5313,-5.5449,-5.5468,-5.5612,-5.5713,-5.5885,-5.5952,-5.6068,-5.604,-5.6084,-5.6095,-5.6105,-5.6112,-5.584,-5.6091,-5.6091,-5.609,-5.609,-5.609,0,-5.4794,-5.4858,-5.497,-5.5102,-5.5199,-5.5189,-5.5294,-5.5376,-5.5503,-5.5596,-5.5702,-5.5858,-5.5987,-5.6067,-5.6197,-5.6275,-5.6278,-5.6308,-5.6302,-5.6317,-5.6129,-5.609,-5.6303,-5.6303,-5.6303,-5.6303,-5.6303,-5.6303,-5.4922,-5.5078,-5.5112,-5.5308,-5.5371,-5.5511,-5.5572,-5.5656,-5.5731,-5.5905,-5.6011,-5.6063,-5.6153,-5.629,-5.6409,-5.643,-5.6478,-5.651,-5.6529,-5.6352,-5.6329,-5.6308,-5.6271,-5.652,-5.652,-5.6707,-5.6709,-5.671]},{"header":{"parameterUnit":"m.s-1","parameterCategory":1,"la1":30.2991,"la2":30.254,"lo1":-89.0895,"lo2":-89.0444,"dy":0.0017,"dx":0.0017,"nx":28,"ny":28,"refTime":"2024-03-05T03:00:00:Z","depth":0,"parameterNumber":3,"parameterNumberName":"V-component_of_WINDS"},"data":[0,0,0,0,0,0,0,0,0,0,0,0,0,0,0,0,0,0,0,0,0,0,0,0,0,0,0,0,0,0,0,0,0,0,0,0,0,0,0,0,0,0,0,0,0,0,0,0,0,0,0,0,0,0,0,0,0,0,1.8333,1.8336,0,1.8671,1.8675,1.8679,1.8786,1.8785,1.8783,1.8782,1.9141,1.9151,1.9162,0,0,0,0,0,0,0,0,0,0,0,0,0,1.7796,1.7805,1.8332,1.8337,1.8341,1.867,1.8675,1.868,1.8787,1.8785,1.8783,1.8781,1.9137,1.915,1.9163,0,0,0,0,0,0,0,0,0,0,0,0,0,1.8071,1.7808,1.8332,1.8434,1.8446,1.8669,1.8675,1.8681,1.8787,1.8785,1.8782,1.878,1.9133,1.9149,1.9165,1.9315,0,0,1.9216,1.9223,0,0,0,0,0,0,0,0,1.8055,1.8091,1.8415,1.8427,1.8442,1.8684,1.8617,1.8894,1.8788,1.8658,1.8782,1.8779,1.8991,1.9019,1.9088,1.9332,1.9347,1.9217,1.9227,1.9234,1.9239,0,0,0,0,0,0,0,1.8036,1.8077,1.8467,1.8419,1.8436,1.8468,1.8505,1.867,1.8835,1.8669,1.8678,1.8716,1.8998,1.9072,1.9098,1.9352,1.9217,1.9231,1.9242,1.9248,1.9745,1.9748,0,0,0,0,0,0,1.7998,1.806,1.8456,1.8477,1.8238,1.848,1.852,1.8609,1.8833,1.8864,1.8717,1.8719,1.9045,1.9078,1.9111,1.9306,1.9234,1.925,1.9259,1.9742,1.9745,1.9749,0,0,0,0,0,0,1.7986,1.8032,1.8443,1.8271,1.8326,1.8491,1.859,1.8617,1.869,1.8869,1.89,1.8762,1.9045,1.9087,1.9264,1.932,1.9257,1.9272,1.9738,1.9743,1.9747,1.9694,0,0,0,0,0,0,1.797,1.8027,1.8081,1.8271,1.8334,1.8585,1.8593,1.8625,1.8717,1.8723,1.8919,1.8949,1.9046,1.9239,1.9281,1.9342,1.9285,1.9733,1.974,1.9746,1.9692,1.9697,1.9701,0,0,0,0,0,1.795,1.8054,1.8083,1.813,1.8405,1.8588,1.8625,1.873,1.8721,1.878,1.8896,1.8943,1.9306,1.9256,1.9304,1.9371,1.9731,1.9738,1.9745,1.969,1.9696,1.9701,0,0,0,0,0,0,1.7869,1.808,1.8115,1.8283,1.8416,1.8605,1.8683,1.8732,1.8874,1.8874,1.9004,1.9047,1.9216,1.9311,1.9251,1.9532,1.9521,1.9539,1.9463,1.947,1.9474,1.9449,1.9299,0,0,0,0,0,1.787,1.7996,1.8176,1.8307,1.8372,1.8515,1.8599,1.8669,1.8814,1.8873,1.9001,1.9144,1.9292,1.9386,1.9531,1.9706,1.9755,1.9777,1.9781,1.9784,1.9798,1.9905,1.9919,1.9773,1.9773,1.9773,0,0,1.7874,1.8005,1.8077,1.8294,1.8405,1.8539,1.8562,1.8701,1.8804,1.8895,1.907,1.917,1.9339,1.9517,1.9602,1.9602,1.9849,1.9793,1.9794,1.9807,1.9914,1.9928,1.994,1.9778,1.9777,1.9776,0,0,1.7951,1.806,1.8183,1.8295,1.8463,1.8559,1.8589,1.8773,1.8842,1.9019,1.9092,1.9219,1.9467,1.9587,1.968,1.9808,1.9859,1.9852,1.9877,1.9979,1.9991,2.0002,2.0053,2.0069,1.9865,1.9865,1.9865,0,1.7936,1.8135,1.8242,1.8378,1.8474,1.8561,1.8691,1.8796,1.9004,1.9071,1.9067,1.9386,1.9505,1.9715,1.9747,1.9818,1.9861,1.9831,1.9979,1.9992,2.0004,2.0054,2.0072,1.9863,1.9864,1.9864,1.9864,0,1.8111,1.8249,1.833,1.8526,1.8632,1.8764,1.8897,1.8992,1.9054,1.9152,1.9336,1.9483,1.9662,1.9717,1.978,1.9939,1.9934,1.9953,1.9946,2.0014,2.0064,2.0083,1.9861,1.9862,1.9862,1.9863,0,0,1.8144,1.84,1.8428,1.8522,1.8716,1.8828,1.8967,1.9139,1.9221,1.9364,1.9488,1.97,1.972,1.9826,1.9904,1.9993,2.0093,2.0003,2.0009,2.0018,2.0285,2.0271,2.0291,2.0127,2.0131,2.0134,2.0272,0,1.8248,1.8496,1.8599,1.8802,1.8935,1.9022,1.9146,1.9282,1.9379,1.951,1.962,1.9769,1.9782,1.9847,1.9939,2.006,2.0149,2.0052,2.0251,2.0256,2.0207,2.0316,2.0301,2.0424,2.0292,2.0295,2.0297,0,1.8402,1.8544,1.8759,1.8942,1.9002,1.911,1.928,1.9402,1.9561,1.9627,1.9747,1.9821,1.9978,1.9959,2.0182,2.0114,2.0202,2.0275,2.0282,2.0307,2.0282,2.0348,2.0465,2.0485,2.0328,2.0326,2.0323,0,1.841,1.8654,1.8816,1.8893,1.911,1.9185,1.928,1.9436,1.9535,1.9686,1.9753,1.992,2.0013,2.0144,2.0264,2.0238,2.0478,2.0467,2.0542,2.0539,2.059,2.0585,2.0726,2.0641,2.064,2.064,2.064,0,1.8517,1.8646,1.8823,1.8923,1.9074,1.9194,1.9342,1.9443,1.9583,1.9709,1.9796,1.9914,2.0064,2.0203,2.0299,2.0473,2.0513,2.0575,2.0599,2.0569,2.0561,2.063,2.0626,2.0645,2.0644,2.0643,2.0642,0,1.8551,1.8673,1.8857,1.9048,1.9099,1.9202,1.9369,1.9473,1.9575,1.9735,1.978,1.9942,2.0111,2.0244,2.0464,2.0529,2.0714,2.0739,2.0658,2.0672,2.074,2.0734,2.0933,2.0968,2.0854,2.0855,2.0856,0,1.8612,1.8713,1.8916,1.9005,1.9098,1.924,1.9342,1.9468,1.9571,1.9763,1.9846,2.002,2.0166,2.0433,2.0575,2.0746,2.0779,2.0837,2.0805,2.0774,2.0786,2.0779,2.0793,2.0841,2.0842,2.0842,2.0843,0,1.871,1.8767,1.8907,1.9071,1.9189,1.9325,1.9464,1.9533,1.9685,1.9798,1.997,2.0083,2.0309,2.0484,2.067,2.0776,2.0838,2.0852,2.0879,2.085,2.0801,2.0834,2.0673,2.0847,2.0846,2.0846,2.0846,2.0846,1.8763,1.8859,1.9018,1.9174,1.9291,1.9419,1.9528,1.9644,1.9788,1.9979,2.0046,2.0225,2.039,2.0647,2.0753,2.09,2.0904,2.0942,2.0952,2.096,2.096,2.0775,2.0934,2.0934,2.0934,2.0934,2.0934,0,1.8869,1.8975,1.9117,1.9308,1.9433,1.9476,1.9633,1.9736,1.9891,2.0037,2.0179,2.0381,2.0553,2.0709,2.0889,2.0977,2.101,2.1021,2.1017,2.1042,2.0943,2.0904,2.0991,2.0991,2.0991,2.0991,2.0991,2.0991,1.8938,1.9106,1.9182,1.9412,1.952,1.9693,1.978,1.9902,2.002,2.024,2.0381,2.0481,2.0634,2.0827,2.0989,2.1031,2.1096,2.1099,2.1149,2.1055,2.1048,2.1041,2.1004,2.1111,2.1111,2.1237,2.1238,2.1239]}]]